Flag for Canada Weather past 2 weeks in Oshawa, Ontario, Canada

Now
64 °F

Fog.


Feels Like: 64 °F
Forecast: 59 / 68 °F
Wind: 5 mph from East

Location: Toronto Buttonville

Current Time: Sep 30, 2014 at 12:19:03 PM

Latest Report: Sep 30, 2014 at 11:00 AM


Visibility: 5 mi

Pressure: 29.91 "Hg

Humidity: 88%

Dew point: 61 °F

Location of OshawaLocation

Historic Weather in Oshawa — Graph

°F

Oshawa temperature yesterday

Maximum temperature yesterday: 75 °F (at 2:00 PM)
Minimum temperature yesterday: 54 °F (at 5:00 AM)
Average temperature yesterday: 64 °F

Past Weeks' High & Low Weather Summary

 TemperatureHumidityPressure
High79 °F (Sep 27, 4:00 PM)100% (Sep 15, 8:00 PM)30.53 "Hg (Sep 15, 8:00 PM)
Low37 °F (Sep 19, 6:00 AM)42% (Sep 27, 5:00 PM)29.52 "Hg (Sep 21, 11:00 AM)
Average59 °F76%30.13 "Hg
* Reported Sep 15 11:00 AM — Sep 30 11:00 AM, Oshawa, Weather by CustomWeather, © 2014

Note: Actual official high and low records may vary slightly from our data, if they occured in-between our weather recording intervals... More about our weather records

Advertising

Oshawa weather history for previous 24 hours

 ConditionsComfort  
Time TempWeatherWind HumidityBarometerVisibility
11:00 AM
Sep 30
64 °FFog.5 mph88%29.91 "Hg5 mi
10:00 AM63 °FFog.5 mph94%29.90 "Hg2 mi
9:00 AM61 °FFog.7 mph100%29.88 "Hg1 mi
8:46 AMN/AFog.3 mphN/AN/A1 mi
8:00 AM61 °FFog.3 mph100%29.88 "Hg1 mi
7:00 AM61 °FFog.No wind100%29.87 "Hg1 mi
6:00 AM61 °FFog.2 mph94%29.87 "Hg1 mi
5:00 AM61 °FFog.2 mph100%29.87 "Hg0 mi
4:03 AMN/AFog.No windN/AN/A1 mi
3:00 AM61 °FFog.No wind100%29.86 "Hg0 mi
2:00 AM59 °FFog.No wind100%29.86 "Hg5 mi
1:00 AM59 °FFog.No wind94%29.86 "Hg5 mi
12:00 AM59 °FFog.2 mph94%29.87 "Hg5 mi
11:00 PM
Sep 29
61 °FPassing clouds.No wind94%29.88 "Hg7 mi
10:00 PM61 °FPassing clouds.No wind83%29.89 "Hg15 mi
9:00 PM63 °FPassing clouds.No wind77%29.90 "Hg15 mi
8:00 PM68 °FScattered clouds.2 mph64%29.90 "Hg15 mi
7:00 PM70 °FScattered clouds.2 mph60%29.89 "Hg15 mi
6:00 PM72 °FPassing clouds.5 mph61%29.89 "Hg15 mi
5:00 PM73 °FPassing clouds.8 mph57%29.89 "Hg15 mi
4:00 PM73 °FScattered clouds.5 mph61%29.90 "Hg15 mi
3:00 PM75 °FScattered clouds.5 mph54%29.91 "Hg15 mi
2:00 PM75 °FScattered clouds.5 mph54%29.93 "Hg15 mi
1:00 PM73 °FPassing clouds.2 mph57%29.97 "Hg15 mi
12:00 PM72 °FPassing clouds.3 mph65%29.98 "Hg15 mi
Weather by CustomWeather, © 2014

See weather overviewHow to use our weather pages